• In Czech Republic
  • List of Countries
  • For 7 days
  • Water Temperature
  • Satellite Maps
  • Weather Map
  • Weather Widgets
  • user-avatar
    Login

    Hourly Weather Nashavar

    Today, 15 December, Friday

    Time Temperature Precipitation Wind Pressure Humidity
    00:00 +12°C° 0 mm 2 mps 736 mmHg 48%
    01:00 +11°C° 0 mm 3 mps 737 mmHg 48%
    02:00 +10°C° 0 mm 3 mps 737 mmHg 48%
    03:00 +10°C° 0 mm 3 mps 737 mmHg 47%
    04:00 +9°C° 0 mm 3 mps 737 mmHg 46%
    05:00 +10°C° 0 mm 4 mps 736 mmHg 42%
    06:00 +10°C° 0 mm 4 mps 737 mmHg 41%
    07:00 +8°C° 0 mm 4 mps 737 mmHg 41%
    08:00 +8°C° 0 mm 4 mps 738 mmHg 40%
    09:00 +11°C° 0 mm 4 mps 738 mmHg 36%
    10:00 +13°C° 0 mm 4 mps 738 mmHg 32%
    11:00 +14°C° 0 mm 4 mps 737 mmHg 25%
    12:00 +15°C° 0 mm 4 mps 737 mmHg 24%
    13:00 +17°C° 0 mm 4 mps 737 mmHg 23%
    14:00 +17°C° 0 mm 4 mps 737 mmHg 22%
    15:00 +16°C° 0 mm 3 mps 737 mmHg 24%
    16:00 +14°C° 0 mm 3 mps 737 mmHg 26%
    17:00 +14°C° 0 mm 2 mps 737 mmHg 30%
    18:00 +13°C° 0 mm 2 mps 737 mmHg 32%
    19:00 +13°C° 0 mm 2 mps 738 mmHg 33%
    20:00 +11°C° 0 mm 3 mps 738 mmHg 34%
    21:00 +11°C° 0 mm 3 mps 739 mmHg 34%
    22:00 +11°C° 0 mm 3 mps 739 mmHg 34%
    23:00 +10°C° 0 mm 3 mps 739 mmHg 34%

    Tomorrow, 16 December, Saturday

    Time Temperature Precipitation Wind Pressure Humidity
    00:00 +10°C° 0 mm 3 mps 739 mmHg 33%
    01:00 +10°C° 0 mm 3 mps 739 mmHg 33%
    02:00 +10°C° 0 mm 3 mps 739 mmHg 32%
    03:00 +9°C° 0 mm 3 mps 738 mmHg 32%
    04:00 +9°C° 0 mm 3 mps 738 mmHg 31%
    05:00 +9°C° 0 mm 3 mps 738 mmHg 30%
    06:00 +9°C° 0 mm 3 mps 738 mmHg 29%
    07:00 +9°C° 0 mm 3 mps 738 mmHg 28%
    08:00 +9°C° 0 mm 3 mps 738 mmHg 27%
    09:00 +11°C° 0 mm 3 mps 738 mmHg 24%
    10:00 +13°C° 0 mm 3 mps 738 mmHg 20%
    11:00 +16°C° 0 mm 3 mps 738 mmHg 17%
    12:00 +17°C° 0 mm 3 mps 737 mmHg 16%
    13:00 +18°C° 0 mm 3 mps 737 mmHg 15%
    14:00 +19°C° 0 mm 3 mps 737 mmHg 14%
    15:00 +18°C° 0 mm 3 mps 737 mmHg 16%
    16:00 +17°C° 0 mm 3 mps 737 mmHg 17%
    17:00 +16°C° 0 mm 3 mps 737 mmHg 19%
    18:00 +14°C° 0 mm 3 mps 737 mmHg 20%
    19:00 +13°C° 0 mm 3 mps 738 mmHg 20%
    20:00 +13°C° 0 mm 3 mps 738 mmHg 21%
    21:00 +12°C° 0 mm 3 mps 738 mmHg 21%
    22:00 +12°C° 0 mm 3 mps 738 mmHg 21%
    23:00 +12°C° 0 mm 3 mps 738 mmHg 21%

    Day after tomorrow, 17 December, Sunday

    Time Temperature Precipitation Wind Pressure Humidity
    00:00 +12°C° 0 mm 3 mps 738 mmHg 21%
    01:00 +11°C° 0 mm 3 mps 739 mmHg 21%
    02:00 +11°C° 0 mm 3 mps 739 mmHg 21%
    03:00 +11°C° 0 mm 3 mps 738 mmHg 22%
    04:00 +11°C° 0 mm 3 mps 738 mmHg 22%
    05:00 +11°C° 0 mm 3 mps 738 mmHg 22%
    06:00 +11°C° 0 mm 3 mps 738 mmHg 22%
    07:00 +11°C° 0 mm 3 mps 739 mmHg 22%
    08:00 +11°C° 0 mm 3 mps 739 mmHg 22%
    09:00 +13°C° 0 mm 3 mps 739 mmHg 20%
    10:00 +16°C° 0 mm 3 mps 739 mmHg 17%
    11:00 +18°C° 0 mm 3 mps 739 mmHg 15%
    12:00 +19°C° 0 mm 3 mps 739 mmHg 14%
    13:00 +20°C° 0 mm 3 mps 738 mmHg 13%
    14:00 +21°C° 0 mm 3 mps 738 mmHg 13%
    15:00 +20°C° 0 mm 3 mps 738 mmHg 14%
    16:00 +19°C° 0 mm 3 mps 738 mmHg 16%
    17:00 +18°C° 0 mm 2 mps 737 mmHg 18%
    18:00 +17°C° 0 mm 3 mps 738 mmHg 18%
    19:00 +17°C° 0 mm 3 mps 738 mmHg 18%
    20:00 +16°C° 0 mm 3 mps 739 mmHg 18%
    21:00 +16°C° 0 mm 3 mps 739 mmHg 19%
    22:00 +16°C° 0 mm 3 mps 739 mmHg 19%
    23:00 +14°C° 0 mm 3 mps 738 mmHg 20%

    18 December, Monday

    Time Temperature Precipitation Wind Pressure Humidity
    00:00 +14°C° 0 mm 3 mps 738 mmHg 20%
    01:00 +14°C° 0 mm 3 mps 738 mmHg 21%
    02:00 +14°C° 0 mm 3 mps 738 mmHg 22%
    03:00 +14°C° 0 mm 3 mps 738 mmHg 22%
    04:00 +14°C° 0 mm 3 mps 738 mmHg 23%
    05:00 +14°C° 0 mm 3 mps 737 mmHg 24%
    06:00 +14°C° 0 mm 3 mps 738 mmHg 25%
    07:00 +14°C° 0 mm 3 mps 738 mmHg 26%
    08:00 +14°C° 0 mm 3 mps 738 mmHg 27%
    09:00 +17°C° 0 mm 3 mps 738 mmHg 25%
    10:00 +18°C° 0 mm 4 mps 738 mmHg 23%
    11:00 +20°C° 0 mm 4 mps 739 mmHg 20%
    12:00 +21°C° 0 mm 4 mps 738 mmHg 20%
    13:00 +22°C° 0 mm 4 mps 737 mmHg 19%
    14:00 +22°C° 0 mm 4 mps 737 mmHg 18%
    15:00 +21°C° 0 mm 4 mps 737 mmHg 20%
    16:00 +20°C° 0 mm 4 mps 737 mmHg 22%
    17:00 +19°C° 0 mm 3 mps 736 mmHg 23%
    18:00 +19°C° 0 mm 3 mps 737 mmHg 23%
    19:00 +18°C° 0 mm 3 mps 737 mmHg 24%
    20:00 +18°C° 0 mm 3 mps 737 mmHg 24%
    21:00 +17°C° 0 mm 3 mps 737 mmHg 24%
    22:00 +17°C° 0 mm 3 mps 737 mmHg 24%
    23:00 +17°C° 0 mm 3 mps 737 mmHg 24%

    19 December, Tuesday

    Time Temperature Precipitation Wind Pressure Humidity
    00:00 +17°C° 0 mm 3 mps 737 mmHg 25%
    01:00 +16°C° 0 mm 3 mps 737 mmHg 25%
    02:00 +16°C° 0 mm 3 mps 736 mmHg 25%
    03:00 +16°C° 0 mm 3 mps 736 mmHg 25%
    04:00 +14°C° 0 mm 3 mps 736 mmHg 25%
    05:00 +14°C° 0 mm 3 mps 736 mmHg 25%
    06:00 +14°C° 0 mm 3 mps 736 mmHg 25%
    07:00 +14°C° 0 mm 3 mps 737 mmHg 25%
    08:00 +14°C° 0 mm 3 mps 737 mmHg 25%
    09:00 +17°C° 0 mm 3 mps 737 mmHg 23%
    10:00 +19°C° 0 mm 4 mps 737 mmHg 20%
    11:00 +21°C° 0 mm 4 mps 737 mmHg 18%
    12:00 +22°C° 0 mm 4 mps 737 mmHg 17%
    13:00 +23°C° 0 mm 4 mps 736 mmHg 16%
    14:00 +23°C° 0 mm 4 mps 736 mmHg 15%
    15:00 +22°C° 0 mm 4 mps 736 mmHg 17%
    16:00 +21°C° 0 mm 4 mps 735 mmHg 19%
    17:00 +20°C° 0 mm 3 mps 735 mmHg 21%
    18:00 +19°C° 0 mm 3 mps 735 mmHg 21%
    19:00 +18°C° 0 mm 3 mps 736 mmHg 22%
    20:00 +18°C° 0 mm 3 mps 736 mmHg 22%
    21:00 +17°C° 0 mm 3 mps 736 mmHg 23%
    22:00 +17°C° 0 mm 3 mps 736 mmHg 24%
    23:00 +17°C° 0 mm 3 mps 736 mmHg 24%

    20 December, Wednesday

    Time Temperature Precipitation Wind Pressure Humidity
    00:00 +16°C° 0 mm 3 mps 736 mmHg 25%
    01:00 +16°C° 0 mm 3 mps 736 mmHg 25%
    02:00 +16°C° 0 mm 3 mps 736 mmHg 26%
    03:00 +14°C° 0 mm 3 mps 736 mmHg 26%
    04:00 +14°C° 0 mm 3 mps 735 mmHg 26%
    05:00 +14°C° 0 mm 3 mps 735 mmHg 26%
    06:00 +14°C° 0 mm 3 mps 736 mmHg 26%
    07:00 +14°C° 0 mm 3 mps 736 mmHg 26%
    08:00 +14°C° 0 mm 3 mps 737 mmHg 26%
    09:00 +17°C° 0 mm 3 mps 737 mmHg 23%
    10:00 +19°C° 0 mm 3 mps 737 mmHg 20%
    11:00 +21°C° 0 mm 3 mps 738 mmHg 17%
    12:00 +22°C° 0 mm 3 mps 737 mmHg 16%
    13:00 +24°C° 0 mm 3 mps 736 mmHg 15%
    14:00 +25°C° 0 mm 3 mps 736 mmHg 14%
    15:00 +22°C° 0 mm 3 mps 736 mmHg 16%
    16:00 +21°C° 0 mm 3 mps 736 mmHg 18%
    17:00 +20°C° 0 mm 3 mps 736 mmHg 20%
    18:00 +19°C° 0 mm 3 mps 736 mmHg 20%
    19:00 +18°C° 0 mm 3 mps 737 mmHg 21%
    20:00 +17°C° 0 mm 3 mps 737 mmHg 22%
    21:00 +17°C° 0 mm 3 mps 737 mmHg 22%
    22:00 +17°C° 0 mm 3 mps 737 mmHg 23%
    23:00 +16°C° 0 mm 3 mps 737 mmHg 23%
    Show more